TimeCST,TemperatureF,Dew PointF,Humidity,Sea Level PressureIn,VisibilityMPH,Wind Direction,Wind SpeedMPH,Gust SpeedMPH,PrecipitationIn,Events,Conditions,WindDirDegrees,DateUTC
12:35 AM,33.8,32.0,93,29.55,1.8,North,8.1,-,0.00,Snow,Light Snow,350,2013-01-30 06:35:00
12:53 AM,33.1,32.0,96,29.58,1.2,WNW,8.1,-,0.01,Snow,Light Snow,300,2013-01-30 06:53:00
1:04 AM,33.8,32.0,93,29.57,1.0,NW,12.7,-,0.01,Snow,Light Snow,310,2013-01-30 07:04:00
1:23 AM,32.0,32.0,100,29.56,0.8,NW,16.1,-,0.02,Snow,Light Snow,320,2013-01-30 07:23:00
1:40 AM,32.0,30.2,93,29.55,1.2,NNW,17.3,-,0.02,Snow,Light Snow,330,2013-01-30 07:40:00
1:48 AM,32.0,30.2,93,29.55,2.5,NNW,18.4,-,0.02,Snow,Light Snow,330,2013-01-30 07:48:00
1:53 AM,32.0,30.9,96,29.57,4.0,NNW,15.0,-,0.02,Snow,Light Snow,340,2013-01-30 07:53:00
2:53 AM,32.0,30.9,96,29.59,5.0,NNW,10.4,-,0.00,Snow,Light Snow,340,2013-01-30 08:53:00
3:21 AM,32.0,30.2,93,29.57,7.0,North,12.7,23.0,0.00,Snow,Light Snow,350,2013-01-30 09:21:00
3:53 AM,32.0,30.9,96,29.61,5.0,NNW,15.0,23.0,0.00,Snow,Light Snow,330,2013-01-30 09:53:00
4:18 AM,32.0,28.4,87,29.60,3.0,NNW,18.4,28.8,0.00,Snow,Light Snow,340,2013-01-30 10:18:00
4:25 AM,32.0,28.4,87,29.61,2.0,North,18.4,34.5,0.00,Snow,Light Snow,350,2013-01-30 10:25:00
4:53 AM,30.9,28.0,89,29.65,2.5,North,15.0,29.9,0.00,Snow,Light Snow,350,2013-01-30 10:53:00
5:05 AM,30.2,28.4,93,29.63,2.5,NW,20.7,26.5,0.00,Snow,Light Snow,320,2013-01-30 11:05:00
5:24 AM,28.4,26.6,93,29.65,2.0,NNW,24.2,31.1,0.00,Snow,Light Snow,330,2013-01-30 11:24:00
5:45 AM,28.4,26.6,93,29.66,3.0,NNW,21.9,28.8,0.00,Snow,Light Snow,330,2013-01-30 11:45:00
5:53 AM,28.9,26.1,89,29.68,3.0,NNW,18.4,28.8,0.00,Snow,Light Snow,340,2013-01-30 11:53:00
6:39 AM,26.6,23.0,86,29.70,6.0,NNW,27.6,35.7,0.00,Snow,Light Snow,330,2013-01-30 12:39:00
6:53 AM,26.1,23.0,88,29.74,3.0,NW,26.5,35.7,0.00,Snow,Light Snow,320,2013-01-30 12:53:00
7:17 AM,26.6,21.2,80,29.73,2.5,NW,24.2,36.8,0.00,Snow,Light Snow,320,2013-01-30 13:17:00
7:27 AM,26.6,21.2,80,29.74,3.0,NW,24.2,29.9,0.00,Snow,Light Snow,320,2013-01-30 13:27:00
7:38 AM,24.8,21.2,86,29.75,2.0,NW,24.2,31.1,0.00,Snow,Light Snow,320,2013-01-30 13:38:00
7:41 AM,24.8,21.2,86,29.75,1.8,NW,26.5,32.2,0.00,Snow,Light Snow,320,2013-01-30 13:41:00
7:47 AM,24.8,21.2,86,29.76,3.0,NW,27.6,40.3,0.00,Snow,Light Snow,320,2013-01-30 13:47:00
7:53 AM,25.0,21.0,85,29.79,6.0,NW,24.2,34.5,0.00,Snow,Light Snow,320,2013-01-30 13:53:00
8:29 AM,24.8,21.2,86,29.78,1.8,NW,24.2,32.2,0.00,Snow,Light Snow,310,2013-01-30 14:29:00
8:53 AM,25.0,21.0,85,29.82,1.8,NW,21.9,28.8,0.00,Snow,Light Snow,310,2013-01-30 14:53:00
9:10 AM,24.8,21.2,86,29.80,2.5,NW,25.3,32.2,0.00,Snow,Light Snow,320,2013-01-30 15:10:00
9:37 AM,24.8,19.4,80,29.81,4.0,NW,24.2,31.1,0.00,Snow,Light Snow,320,2013-01-30 15:37:00
9:53 AM,25.0,21.0,85,29.85,6.0,NW,25.3,31.1,0.00,Snow,Light Snow,320,2013-01-30 15:53:00
10:53 AM,26.1,19.0,75,29.88,10.0,NNW,27.6,33.4,0.00,,Overcast,330,2013-01-30 16:53:00
11:53 AM,26.1,17.1,69,29.90,10.0,NW,24.2,32.2,0.00,,Overcast,320,2013-01-30 17:53:00
12:53 PM,26.1,19.0,75,29.89,9.0,WNW,19.6,31.1,0.00,Snow,Light Snow,300,2013-01-30 18:53:00
1:43 PM,26.6,15.8,64,29.86,10.0,NW,27.6,34.5,0.00,,Overcast,320,2013-01-30 19:43:00
1:53 PM,26.1,17.1,69,29.89,10.0,NW,24.2,33.4,0.00,,Overcast,310,2013-01-30 19:53:00
2:08 PM,26.6,17.6,69,29.86,10.0,NW,24.2,32.2,N/A,,Overcast,320,2013-01-30 20:08:00
2:53 PM,26.1,15.1,63,29.91,10.0,NW,24.2,-,0.00,,Overcast,310,2013-01-30 20:53:00
3:40 PM,24.8,15.8,69,29.89,10.0,NNW,18.4,28.8,N/A,,Overcast,330,2013-01-30 21:40:00
3:53 PM,26.1,17.1,69,29.93,10.0,NW,17.3,-,N/A,,Overcast,320,2013-01-30 21:53:00
4:53 PM,25.0,17.1,72,29.95,10.0,WNW,17.3,-,N/A,,Overcast,300,2013-01-30 22:53:00
5:53 PM,25.0,16.0,69,29.97,10.0,NW,13.8,-,N/A,,Overcast,310,2013-01-30 23:53:00
6:01 PM,24.8,15.8,69,29.94,10.0,NW,15.0,-,N/A,,Overcast,310,2013-01-31 00:01:00
6:53 PM,24.1,16.0,71,29.99,10.0,NW,10.4,-,N/A,,Overcast,310,2013-01-31 00:53:00
7:53 PM,24.1,16.0,71,29.99,10.0,WNW,8.1,-,N/A,,Overcast,290,2013-01-31 01:53:00
8:53 PM,18.0,12.9,81,30.01,10.0,WSW,5.8,-,N/A,,Clear,240,2013-01-31 02:53:00
9:53 PM,19.0,12.9,77,30.01,10.0,SW,8.1,-,N/A,,Clear,230,2013-01-31 03:53:00
10:53 PM,18.0,12.9,81,30.00,10.0,SW,9.2,-,N/A,,Clear,230,2013-01-31 04:53:00
11:53 PM,15.1,10.9,84,30.00,10.0,SSW,6.9,-,N/A,,Clear,210,2013-01-31 05:53:00